Change the Weather History Date:

Sunday, February 16, 2014

  Actual Average Record
Temperature  
Mean Temperature 35 °F 25 °F  
Max Temperature 43 °F 36 °F 58 °F (1977)
Min Temperature 26 °F 14 °F -12 °F (1956)
Degree Days  
Heating Degree Days 30 40  
Month to date heating degree days 705 676  
Since 1 July heating degree days 5374 5598  
Cooling Degree Days 0 0  
Month to date cooling degree days 0 0  
Year to date cooling degree days 0 0  
Moisture  
Dew Point 21 °F    
Average Humidity 66    
Maximum Humidity 96    
Minimum Humidity 35    
Precipitation  
Precipitation T in 0.02 in 0.22 in (1991)
Month to date precipitation 0.63 0.34  
Year to date precipitation 0.86 0.85  
Sea Level Pressure  
Sea Level Pressure 29.85 in    
Wind  
Wind Speed 10 mph (SW)    
Max Wind Speed 30 mph    
Max Gust Speed 41 mph    
Visibility 10 miles    
Events Rain    
T = Trace of Precipitation, MM = Missing Value Source: NWS Daily Summary

Daily Weather History Graph

Daily Weather History Graph

Search for Another Location

Airport or City:

Trip Planner

Search our weather history database for the weather conditions in past years. The results will help you decide how hot, cold, wet, or windy it might be!

Date:

Astronomy

Feb. 16, 2014 Rise Set
Actual Time 7:35 AM MST 6:07 PM MST
Civil Twilight 7:05 AM MST 6:37 PM MST
Nautical Twilight 6:31 AM MST 7:11 PM MST
Astronomical Twilight 5:57 AM MST 7:44 PM MST
Moon 8:14 PM MST (2/16) 8:01 AM MST (2/16)
Length of Visible Light 11h 31m
Length of Day
10h 32m
Full, 97% of the Moon is Illuminated
Feb 16
Full
Feb 22
Last Quarter
Mar 1
New
Mar 8
First Quarter
Mar 16
Full

Hourly Weather History & Observations

Time (MST) Temp. Windchill Dew Point Humidity Pressure Visibility Wind Dir Wind Speed Gust Speed Precip Events Conditions
12:55 AM 39.0 °F 34.8 °F 33.1 °F 79% 29.65 in 10.0 mi ESE 5.8 mph - N/A   Mostly Cloudy
1:55 AM 39.0 °F - 33.1 °F 79% 29.65 in 10.0 mi Calm Calm - N/A   Mostly Cloudy
2:55 AM 41.0 °F 38.0 °F 30.9 °F 67% 29.63 in 10.0 mi South 4.6 mph - N/A   Overcast
3:55 AM 39.9 °F 34.5 °F 30.9 °F 70% 29.62 in 10.0 mi South 8.1 mph - N/A   Mostly Cloudy
4:55 AM 41.0 °F 33.9 °F 30.9 °F 67% 29.58 in 10.0 mi South 12.7 mph - N/A   Mostly Cloudy
5:55 AM 39.9 °F 34.5 °F 30.9 °F 70% 29.58 in 10.0 mi SSW 8.1 mph - N/A   Mostly Cloudy
6:55 AM 37.0 °F 28.9 °F 32.0 °F 82% 29.62 in 10.0 mi WSW 12.7 mph 17.3 mph 0.00 in Rain Light Rain
7:55 AM 37.9 °F 30.9 °F 26.1 °F 62% 29.64 in 10.0 mi SSW 10.4 mph - 0.00 in   Overcast
8:55 AM 37.0 °F 29.3 °F 26.1 °F 65% 29.68 in 10.0 mi West 11.5 mph - N/A   Partly Cloudy
9:55 AM 37.0 °F 28.5 °F 17.1 °F 44% 29.73 in 10.0 mi West 13.8 mph 25.3 mph N/A   Clear
10:55 AM 37.9 °F 30.0 °F 15.1 °F 39% 29.75 in 10.0 mi WSW 12.7 mph 21.9 mph N/A   Clear
11:55 AM 39.0 °F 29.0 °F 16.0 °F 39% 29.81 in 10.0 mi WNW 20.7 mph 26.5 mph N/A   Partly Cloudy
12:55 PM 34.0 °F 21.3 °F 19.9 °F 56% 29.85 in 10.0 mi NW 25.3 mph 33.4 mph 0.00 in   Scattered Clouds
1:55 PM 37.0 °F 25.4 °F 12.0 °F 36% 29.85 in 10.0 mi West 25.3 mph 34.5 mph 0.00 in   Clear
2:55 PM 37.0 °F 28.5 °F 12.0 °F 36% 29.88 in 10.0 mi West 13.8 mph 25.3 mph N/A   Clear
3:55 PM 34.0 °F 23.8 °F 15.1 °F 46% 29.95 in 10.0 mi West 16.1 mph 23.0 mph N/A   Scattered Clouds
4:55 PM 34.0 °F 28.8 °F 18.0 °F 52% 29.99 in 10.0 mi Variable 5.8 mph - N/A   Scattered Clouds
5:55 PM 30.9 °F 22.8 °F 15.1 °F 52% 30.04 in 10.0 mi West 9.2 mph - N/A   Clear
6:55 PM 30.0 °F 26.5 °F 14.0 °F 51% 30.11 in 10.0 mi Variable 3.5 mph - N/A   Clear
7:55 PM 28.0 °F - 14.0 °F 56% 30.14 in 10.0 mi Calm Calm - N/A   Clear
8:55 PM 28.9 °F 23.9 °F 14.0 °F 54% 30.15 in 10.0 mi South 4.6 mph - N/A   Clear
9:55 PM 30.0 °F 21.1 °F 12.9 °F 49% 30.15 in 10.0 mi SSW 10.4 mph - N/A   Clear
10:55 PM 28.0 °F 20.8 °F 12.9 °F 53% 30.16 in 10.0 mi South 6.9 mph - N/A   Clear
11:55 PM 27.0 °F 19.5 °F 12.9 °F 56% 30.15 in 10.0 mi SSE 6.9 mph - N/A   Clear